User: anonymous   Login
Location: Terra Rouge Observatory
(46.0000°N, 62.7500°W)
Time: 15:56:29
(UTC-03:00)
Language:

NOSS 3-1 (A) - Orbit

View from above orbital plane
View from above orbital plane
View from above satellite
View from above satellite

Ground track
Ground track

The orbit data is extracted from the following two-line orbital elements,

1 26905U 01040A   16223.81297042 0.00000000  00000-0  00000-0 0    07
2 26905  63.4136 105.9331 0336000 357.1647   2.8353 13.40738334    01
Epoch (UTC): 10 August 2016 19:30:40
Eccentricity: 0.0336000
inclination: 63.4136°
perigee height: 855 km
apogee height: 1358 km
right ascension of ascending node: 105.9331°
argument of perigee: 357.1647°
revolutions per day: 13.40738334
mean anomaly at epoch: 2.8353°
orbit number at epoch: 0

The dashed part of the orbit path shows where the satellite is in the earth's shadow,  

DLR